Zurück zum Katalog

THOR ABLESTAR DEB

AktivLEO
NORAD 544·DEBRIS·🇺🇸 United States

Gestartet Jun 29, 1961 von Cape Canaveral Space Force Station

Loading…

Nächste Überflüge (nächste 24 Stunden)

TLE

AktuellSource: Space-Track

Epoche: Sep 14, 2026, 14:02 UTC

1 00544U 61015GD  26257.58497069  .00000084  00000-0  19536-3 0  9995
2 00544  66.8762  14.5421 0189460 205.5608 166.6979 13.56254370213737

Verfolge THOR ABLESTAR DEB in Echtzeit mit AllMySat

Download on the App Store